User: anonymous   Login
Location: Ariel
(45.9570°N, 122.5700°W)
Time: 06:47:23
(UTC-08:00)
Language:

SO-50 - Orbit

View from above orbital plane
View from above orbital plane
View from above satellite
View from above satellite

Ground track
Ground track

The orbit data is extracted from the following two-line orbital elements,

1 27607U 02058C   19322.37716049 -.00000018  00000-0  18312-4 0  9990
2 27607  64.5547 302.7745 0072251 226.6839 132.8226 14.75589349909564
Epoch (UTC): 18 November 2019 09:03:06
Eccentricity: 0.0072251
inclination: 64.5547°
perigee height: 592 km
apogee height: 694 km
right ascension of ascending node: 302.7745°
argument of perigee: 226.6839°
revolutions per day: 14.75589349
mean anomaly at epoch: 132.8226°
orbit number at epoch: 90956

The dashed part of the orbit path shows where the satellite is in the earth's shadow,  

DLR